Location: Montreal
(45.5087°N, 73.5540°W)
Time: 08:44:33
(UTC-04:00)

AAUSAT CUBESAT 2 - Visible Passes

Search period start: 14 October 2019 00:00
Search period end: 24 October 2019 00:00
Orbit: 574 x 591 km, 97.5° (Epoch: 13 October)

Date Brightness Start Highest point End Pass type
(mag) Time Alt. Az. Time Alt. Az. Time Alt. Az.
14 Oct ? 18:35:18 10° SSE 18:39:27 80° ENE 18:43:37 10° N visible
15 Oct ? 06:17:28 10° ENE 06:18:06 10° E 06:18:46 10° E visible
15 Oct ? 18:41:07 10° SSE 18:45:16 88° WSW 18:49:27 10° NNW visible
16 Oct ? 06:22:22 10° ENE 06:24:01 12° E 06:25:39 10° ESE visible
16 Oct ? 18:46:57 10° S 18:51:06 76° WSW 18:55:15 10° NNW visible
17 Oct ? 06:27:42 10° ENE 06:29:53 14° E 06:32:05 10° ESE visible
17 Oct ? 18:52:48 10° S 18:56:56 65° W 19:01:04 10° NNW visible
18 Oct ? 06:33:11 10° NE 06:35:47 16° E 06:38:21 10° SE visible
18 Oct ? 18:58:42 10° S 19:02:46 56° W 19:06:51 10° NNW visible
19 Oct ? 06:38:45 10° NE 06:41:40 19° E 06:44:33 10° SE visible
19 Oct ? 19:04:36 10° S 19:08:36 48° W 19:12:37 10° NNW visible
20 Oct ? 06:44:21 10° NE 06:47:32 21° E 06:50:41 10° SE visible
20 Oct ? 19:10:32 10° S 19:14:27 41° W 19:18:23 10° NNW visible
21 Oct ? 19:16:29 10° SSW 19:20:17 35° W 19:24:07 10° NNW visible
22 Oct ? 19:22:28 10° SSW 19:26:09 31° W 19:29:50 10° NNW visible
23 Oct ? 19:28:29 10° SSW 19:32:00 27° W 19:35:32 10° NW visible
